�N����,����,�~����,�C��,���x,�C��,����,���ϕ���,�ő�u�ԕ���,�ő厞����,���˗�,�I�_���x,�n�����x,�ő啗���N��,DTYPE
"24/01/14","00:10",0.0,1.8,82.8,1018.7,310.3,2.6,3.4,334.2,0.00,-0.8,6.0,"00:07:10",1
"24/01/14","00:20",0.0,1.8,82.7,1018.7,306.9,2.6,3.7,331.3,0.00,-0.8,5.9,"00:19:36",1
"24/01/14","00:30",0.0,1.8,82.7,1018.5,310.1,2.6,3.7,339.4,0.00,-0.8,5.9,"00:27:10",1
"24/01/14","00:40",0.0,1.8,82.5,1018.7,321.8,3.4,4.4,336.9,0.00,-0.8,6.2,"00:33:06",1
"24/01/14","00:50",0.0,1.6,82.6,1018.7,314.9,3.0,4.0,324.1,0.00,-1.0,5.9,"00:43:06",1
"24/01/14","01:00",0.0,1.5,82.7,1018.7,322.1,3.5,4.8,314.3,0.00,-1.1,6.2,"00:57:52",1
"24/01/14","01:10",0.0,1.3,83.0,1018.7,321.1,3.6,5.0,330.1,0.00,-1.2,5.9,"01:00:56",1
"24/01/14","01:20",0.0,1.3,83.2,1018.5,329.9,3.1,5.1,331.0,0.00,-1.2,5.9,"01:10:40",1
"24/01/14","01:30",0.0,0.9,83.9,1018.7,332.9,2.6,4.5,342.7,0.00,-1.5,5.9,"01:20:40",1
"24/01/14","01:40",0.0,0.9,84.4,1018.7,321.2,2.6,5.7,325.4,0.00,-1.4,5.9,"01:30:40",1
"24/01/14","01:50",0.0,0.7,85.1,1018.5,329.4,2.7,4.4,329.8,0.00,-1.5,5.7,"01:48:40",1
"24/01/14","02:00",0.0,0.6,85.6,1018.5,323.0,2.3,4.5,324.9,0.00,-1.5,5.7,"01:51:28",1
"24/01/14","02:10",0.0,0.5,86.3,1018.5,323.9,2.7,4.1,314.5,0.00,-1.5,5.9,"02:09:52",1
"24/01/14","02:20",0.0,0.6,86.7,1018.0,327.3,3.5,4.7,331.1,0.00,-1.3,5.7,"02:19:20",1
"24/01/14","02:30",0.0,0.5,87.2,1018.0,324.8,3.1,4.5,338.4,0.00,-1.3,6.0,"02:28:08",1
"24/01/14","02:40",0.0,0.4,87.7,1018.2,304.3,2.5,3.9,309.9,0.00,-1.4,5.9,"02:34:24",1
"24/01/14","02:50",0.0,0.2,88.2,1018.0,320.7,2.5,3.3,324.7,0.00,-1.5,5.7,"02:43:04",1
"24/01/14","03:00",0.0,-0.2,88.7,1017.5,314.7,1.6,2.7,323.7,0.00,-1.8,5.6,"02:57:44",1
"24/01/14","03:10",0.0,-0.7,89.3,1018.2,308.7,1.0,1.8,320.7,0.00,-2.2,5.8,"03:07:44",1
"24/01/14","03:20",0.0,-1.0,90.0,1017.8,322.1,1.8,2.2,316.1,0.00,-2.4,5.8,"03:13:04",1
"24/01/14","03:30",0.0,-1.4,90.4,1017.8,295.0,0.8,1.7,304.4,0.00,-2.7,5.9,"03:27:20",1
"24/01/14","03:40",0.0,-1.7,90.9,1018.0,281.8,0.7,1.4,321.1,0.00,-2.9,5.8,"03:39:44",1
"24/01/14","03:50",0.0,-1.7,91.5,1017.8,299.1,1.3,2.4,322.9,0.00,-2.9,5.5,"03:49:36",1
"24/01/14","04:00",0.0,-1.6,92.0,1018.0,310.7,1.6,3.2,319.2,0.00,-2.7,5.6,"03:56:48",1
"24/01/14","04:10",0.0,-1.6,92.4,1017.8,296.8,0.7,2.0,299.5,0.00,-2.6,5.6,"04:04:48",1
"24/01/14","04:20",0.0,-1.9,92.8,1017.8,289.8,1.2,2.4,316.6,0.00,-2.9,5.7,"04:19:28",1
"24/01/14","04:30",0.0,-1.7,93.3,1017.5,310.6,2.0,2.5,323.2,0.00,-2.6,5.3,"04:24:48",1
"24/01/14","04:40",0.0,-1.5,93.5,1017.8,316.0,1.6,2.5,314.0,0.00,-2.4,5.3,"04:30:56",1
"24/01/14","04:50",0.0,-1.8,93.9,1017.8,313.9,2.0,2.5,325.7,0.00,-2.6,5.4,"04:46:40",1
"24/01/14","05:00",0.0,-2.1,94.2,1017.1,292.3,1.2,2.0,317.5,0.00,-2.9,5.1,"04:50:08",1
"24/01/14","05:10",0.0,-1.9,94.7,1017.5,273.6,1.5,2.7,265.1,0.00,-2.6,5.4,"05:08:08",1
"24/01/14","05:20",0.0,-1.4,94.8,1017.5,273.5,1.6,2.1,270.4,0.00,-2.1,5.3,"05:12:08",1
"24/01/14","05:30",0.0,-1.3,94.9,1018.0,309.5,1.5,2.4,307.4,0.00,-2.0,5.2,"05:20:24",1
"24/01/14","05:40",0.0,-1.7,95.0,1018.0,293.0,1.3,1.8,306.9,0.00,-2.4,5.3,"05:38:40",1
"24/01/14","05:50",0.0,-2.0,95.4,1018.5,299.3,1.6,2.4,321.3,0.00,-2.6,5.1,"05:46:16",1
"24/01/14","06:00",0.0,-2.0,95.7,1018.5,309.7,1.7,2.1,318.8,0.00,-2.6,5.2,"05:56:24",1
"24/01/14","06:10",0.0,-2.0,95.9,1018.7,327.9,2.3,2.9,326.4,0.00,-2.5,4.9,"06:09:20",1
"24/01/14","06:20",0.0,-2.3,96.1,1018.7,274.6,1.5,1.9,313.6,0.00,-2.8,5.2,"06:10:16",1
"24/01/14","06:30",0.0,-2.0,96.3,1018.5,308.9,2.3,3.1,319.9,0.00,-2.5,4.8,"06:22:40",1
"24/01/14","06:40",0.0,-2.2,96.3,1019.0,312.8,2.0,2.8,328.0,0.00,-2.7,5.2,"06:33:28",1
"24/01/14","06:50",0.0,-2.5,96.6,1019.0,295.1,1.3,1.7,298.5,0.00,-2.9,5.0,"06:40:16",1
"24/01/14","07:00",0.0,-2.5,96.7,1018.7,293.5,1.1,1.4,306.7,0.00,-2.9,5.1,"06:54:32",1
"24/01/14","07:10",0.0,-2.8,97.0,1018.7,291.6,1.0,2.0,310.3,0.00,-3.2,5.0,"07:06:00",1
"24/01/14","07:20",0.0,-3.0,97.1,1019.2,312.1,2.2,2.7,314.8,0.00,-3.4,4.9,"07:19:20",1
"24/01/14","07:30",0.0,-3.0,97.3,1019.2,315.5,2.0,2.7,323.6,0.00,-3.3,5.0,"07:20:16",1
"24/01/14","07:40",0.0,-2.8,97.5,1019.2,300.4,1.2,1.8,300.8,0.00,-3.1,4.7,"07:30:16",1
"24/01/14","07:50",0.0,-2.1,97.4,1019.4,304.2,1.1,1.7,321.0,0.01,-2.4,4.7,"07:40:56",1
"24/01/14","08:00",0.0,-2.0,97.6,1019.4,304.1,1.8,2.4,313.7,0.03,-2.3,4.7,"07:53:52",1
"24/01/14","08:10",0.0,-1.1,97.7,1019.7,298.6,1.8,2.8,315.6,0.05,-1.4,4.6,"08:02:52",1
"24/01/14","08:20",0.0,-0.5,97.6,1019.9,275.7,1.0,1.3,283.7,0.08,-0.8,4.6,"08:13:56",1
"24/01/14","08:30",0.0,0.4,97.4,1020.1,299.6,1.2,1.9,313.3,0.10,0.1,4.7,"08:24:24",1
"24/01/14","08:40",0.0,0.9,97.3,1020.1,272.4,0.6,1.2,282.7,0.13,0.6,4.7,"08:39:32",1
"24/01/14","08:50",0.0,1.5,97.3,1020.8,297.5,1.2,2.5,314.1,0.16,1.2,4.7,"08:47:12",1
"24/01/14","09:00",0.0,2.0,96.7,1020.8,292.1,1.1,2.1,293.4,0.19,1.6,4.6,"08:52:00",1
"24/01/14","09:10",0.0,2.1,96.3,1020.8,254.8,0.7,1.2,257.3,0.22,1.6,4.7,"09:03:14",1
"24/01/14","09:20",0.0,2.2,95.9,1021.1,241.0,0.8,1.4,252.6,0.25,1.7,4.6,"09:16:08",1
"24/01/14","09:30",0.0,2.8,96.2,1021.1,251.0,1.0,1.8,291.5,0.27,2.3,4.5,"09:20:02",1
"24/01/14","09:40",0.0,2.8,95.4,1021.1,255.8,1.0,2.2,317.2,0.30,2.2,4.6,"09:30:24",1
"24/01/14","09:50",0.0,3.3,94.4,1021.1,252.5,0.7,1.3,252.7,0.32,2.5,4.7,"09:49:04",1
"24/01/14","10:00",0.0,3.7,93.1,1021.5,259.6,0.8,1.8,251.2,0.34,2.7,4.8,"09:57:12",1
"24/01/14","10:10",0.0,4.1,91.9,1021.5,206.2,0.7,2.4,109.7,0.37,2.9,4.7,"10:08:30",1
"24/01/14","10:20",0.0,4.4,89.5,1021.3,166.3,1.0,2.5,204.9,0.38,2.9,4.8,"10:18:58",1
"24/01/14","10:30",0.0,4.8,86.0,1021.3,163.3,1.0,2.4,88.1,0.40,2.7,4.8,"10:27:30",1
"24/01/14","10:40",0.0,5.3,81.6,1021.1,210.6,1.1,2.1,229.5,0.42,2.5,4.9,"10:33:52",1
"24/01/14","10:50",0.0,5.5,77.4,1021.1,195.9,1.3,3.1,208.9,0.43,1.9,4.7,"10:45:54",1
"24/01/14","11:00",0.0,6.0,74.3,1021.1,196.2,1.1,2.5,164.9,0.45,1.8,5.1,"10:59:20",1
"24/01/14","11:10",0.0,6.2,72.9,1020.6,205.1,1.1,2.2,185.2,0.46,1.7,5.2,"11:01:30",1
"24/01/14","11:20",0.0,6.4,71.7,1020.4,159.0,1.2,2.9,146.7,0.47,1.7,5.2,"11:18:52",1
"24/01/14","11:30",0.0,6.4,70.0,1020.1,209.3,1.3,2.6,155.4,0.47,1.4,5.3,"11:21:06",1
"24/01/14","11:40",0.0,6.6,68.9,1019.9,183.9,1.0,2.5,117.6,0.48,1.3,5.3,"11:39:56",1
"24/01/14","11:50",0.0,7.0,68.4,1019.4,210.6,1.3,2.6,120.8,0.49,1.6,5.3,"11:40:30",1
"24/01/14","12:00",0.0,7.1,67.1,1019.7,217.5,1.3,2.9,231.2,0.49,1.5,5.3,"11:53:32",1
"24/01/14","12:10",0.0,7.2,65.5,1019.0,215.1,0.8,1.8,149.8,0.49,1.2,5.6,"12:05:46",1
"24/01/14","12:20",0.0,7.5,64.0,1019.0,220.2,1.7,3.2,203.8,0.49,1.2,5.6,"12:18:32",1
"24/01/14","12:30",0.0,7.5,63.2,1018.2,239.2,2.2,4.7,231.9,0.49,1.0,5.6,"12:20:42",1
"24/01/14","12:40",0.0,7.8,60.9,1018.0,211.4,0.7,0.9,128.8,0.49,0.8,6.0,"12:32:30",1
"24/01/14","12:50",0.0,8.4,58.4,1017.8,333.8,1.5,2.7,338.4,0.48,0.8,5.9,"12:47:48",1
"24/01/14","13:00",0.0,8.1,56.4,1017.5,316.9,1.6,2.8,329.7,0.47,0.0,6.1,"12:56:10",1
"24/01/14","13:10",0.0,8.8,55.6,1017.8,276.9,1.3,2.4,332.8,0.47,0.5,6.2,"13:03:20",1
"24/01/14","13:20",0.0,9.4,53.6,1017.3,219.0,1.1,2.5,221.4,0.45,0.5,6.3,"13:18:18",1
"24/01/14","13:30",0.0,9.2,52.7,1017.3,230.7,1.8,3.2,241.9,0.44,0.1,6.2,"13:22:42",1
"24/01/14","13:40",0.0,9.8,52.9,1017.1,221.4,1.3,2.6,236.5,0.43,0.7,6.3,"13:32:02",1
"24/01/14","13:50",0.0,9.8,50.7,1016.8,203.2,1.7,2.8,133.7,0.42,0.1,6.5,"13:40:12",1
"24/01/14","14:00",0.0,10.0,49.8,1016.4,201.3,1.5,2.4,197.0,0.40,0.0,6.7,"13:54:16",1
"24/01/14","14:10",0.0,10.0,49.8,1016.4,192.8,2.5,3.9,224.4,0.38,0.0,6.9,"14:00:54",1
"24/01/14","14:20",0.0,10.0,49.2,1015.9,139.2,2.5,3.4,146.6,0.36,-0.1,6.9,"14:17:58",1
"24/01/14","14:30",0.0,10.2,48.9,1015.9,139.2,1.7,2.8,104.9,0.34,0.0,7.0,"14:21:22",1
"24/01/14","14:40",0.0,10.4,48.7,1015.9,132.0,1.6,2.2,128.4,0.32,0.1,7.1,"14:31:54",1
"24/01/14","14:50",0.0,11.1,47.5,1015.9,133.8,1.1,1.6,116.2,0.30,0.4,6.9,"14:47:10",1
"24/01/14","15:00",0.0,11.1,46.2,1015.9,178.3,1.2,2.2,198.6,0.27,0.0,7.3,"14:58:52",1
"24/01/14","15:10",0.0,11.1,47.1,1015.6,125.2,1.6,2.8,128.3,0.25,0.3,7.2,"15:08:26",1
"24/01/14","15:20",0.0,11.1,47.1,1015.6,137.7,2.2,2.5,145.7,0.22,0.3,7.4,"15:11:54",1
"24/01/14","15:30",0.0,11.2,49.8,1015.4,192.1,3.0,5.1,237.1,0.20,1.2,7.4,"15:28:16",1
"24/01/14","15:40",0.0,11.1,53.5,1015.4,212.0,2.8,5.8,236.6,0.18,2.1,7.4,"15:38:04",1
"24/01/14","15:50",0.0,10.8,55.8,1015.4,204.3,3.4,6.2,192.9,0.15,2.4,7.3,"15:43:02",1
"24/01/14","16:00",0.0,10.5,57.8,1015.6,202.3,3.6,7.1,200.3,0.12,2.6,7.5,"15:52:32",1
"24/01/14","16:10",0.0,10.5,58.1,1015.4,195.0,2.5,4.9,227.7,0.10,2.7,7.6,"16:00:58",1
"24/01/14","16:20",0.0,10.5,59.3,1015.2,226.6,2.1,4.0,233.1,0.07,2.9,7.5,"16:16:58",1
"24/01/14","16:30",0.0,10.2,60.1,1015.2,219.9,1.8,4.0,254.4,0.03,2.9,7.6,"16:28:04",1
"24/01/14","16:40",0.0,9.3,61.9,1015.2,205.0,1.6,4.0,246.2,0.00,2.4,7.4,"16:30:56",1
"24/01/14","16:50",0.0,9.0,63.7,1014.5,189.7,1.7,3.9,182.5,0.00,2.5,7.5,"16:46:00",1
"24/01/14","17:00",0.0,8.7,66.0,1014.9,227.1,1.1,2.4,208.4,0.00,2.7,7.5,"16:52:08",1
"24/01/14","17:10",0.0,8.5,67.0,1014.9,276.6,1.2,2.0,313.4,0.00,2.8,7.6,"17:02:32",1
"24/01/14","17:20",0.0,8.0,68.0,1014.7,233.5,0.5,1.1,171.7,0.00,2.5,7.4,"17:11:44",1
"24/01/14","17:30",0.0,7.8,69.6,1014.7,246.9,1.5,2.8,247.3,0.00,2.6,7.6,"17:22:48",1
"24/01/14","17:40",0.0,7.6,70.9,1014.7,236.6,1.3,2.6,238.3,0.00,2.7,7.4,"17:30:56",1
"24/01/14","17:50",0.0,7.5,71.6,1014.7,216.6,1.0,2.0,250.0,0.00,2.7,7.3,"17:40:32",1
"24/01/14","18:00",0.0,7.3,72.4,1014.7,308.9,1.3,3.1,310.2,0.00,2.7,7.4,"17:55:28",1
"24/01/14","18:10",0.0,6.9,73.5,1014.7,336.3,1.5,2.2,342.5,0.00,2.5,7.4,"18:04:40",1
"24/01/14","18:20",0.0,6.5,74.4,1014.7,304.0,1.2,1.9,317.3,0.00,2.3,7.3,"18:17:52",1
"24/01/14","18:30",0.0,6.3,75.2,1014.0,295.4,1.3,1.9,261.4,0.00,2.3,7.3,"18:24:00",1
"24/01/14","18:40",0.0,6.1,76.7,1014.5,316.4,2.1,2.8,334.9,0.00,2.4,7.2,"18:39:12",1
"24/01/14","18:50",0.0,6.0,78.0,1014.2,332.3,1.6,2.8,334.8,0.00,2.5,7.4,"18:43:12",1
"24/01/14","19:00",0.0,5.6,78.9,1014.0,311.0,1.5,2.2,317.1,0.00,2.3,7.2,"18:59:20",1
"24/01/14","19:10",0.0,5.6,80.0,1014.0,326.4,2.0,2.6,319.6,0.00,2.5,7.3,"19:06:56",1
"24/01/14","19:20",0.0,5.4,80.9,1013.8,309.3,1.7,2.5,327.7,0.00,2.4,7.1,"19:12:00",1
"24/01/14","19:30",0.0,5.4,81.8,1014.0,303.5,1.2,2.4,316.9,0.00,2.6,7.2,"19:29:52",1
"24/01/14","19:40",0.0,5.4,82.8,1013.8,312.4,1.8,2.9,316.7,0.00,2.8,7.0,"19:30:56",1
"24/01/14","19:50",0.0,5.3,83.7,1013.8,292.1,1.3,2.6,316.4,0.00,2.8,7.2,"19:49:54",1
"24/01/14","20:00",0.0,5.5,84.4,1013.8,297.6,2.0,2.6,323.9,0.00,3.1,7.2,"19:51:06",1
"24/01/14","20:10",0.0,5.7,84.8,1013.8,295.7,1.8,2.5,317.9,0.00,3.4,7.1,"20:07:04",1
"24/01/14","20:20",0.0,5.6,85.1,1014.0,293.8,2.1,2.5,308.6,0.00,3.3,7.2,"20:16:08",1
"24/01/14","20:30",0.0,5.5,85.3,1013.8,303.8,2.1,3.2,327.6,0.00,3.3,7.1,"20:27:58",1
"24/01/14","20:40",0.0,5.0,85.5,1013.8,322.7,2.0,2.8,315.7,0.00,2.8,7.0,"20:33:36",1
"24/01/14","20:50",0.0,4.4,86.0,1013.5,299.7,1.5,2.2,309.1,0.00,2.3,7.0,"20:49:56",1
"24/01/14","21:00",0.0,4.1,86.5,1013.8,308.4,1.2,2.6,328.4,0.00,2.1,7.0,"20:51:04",1
"24/01/14","21:10",0.0,3.8,87.2,1013.5,316.6,1.6,2.2,321.8,0.00,1.9,7.0,"21:02:48",1
"24/01/14","21:20",0.0,3.8,87.8,1013.3,298.5,1.3,2.0,307.2,0.00,2.0,6.9,"21:18:12",1
"24/01/14","21:30",0.0,3.9,88.4,1013.0,323.6,1.7,2.5,335.4,0.00,2.2,6.9,"21:28:50",1
"24/01/14","21:40",0.0,3.7,88.8,1013.3,330.7,1.6,2.0,330.4,0.00,2.1,6.8,"21:31:54",1
"24/01/14","21:50",0.0,3.2,89.4,1012.8,302.5,1.3,1.9,317.0,0.00,1.7,6.8,"21:43:04",1
"24/01/14","22:00",0.0,3.2,90.0,1013.0,317.4,1.6,2.1,315.5,0.00,1.8,6.8,"21:50:40",1
"24/01/14","22:10",0.0,3.1,90.4,1012.6,320.0,1.6,2.6,323.5,0.00,1.7,6.6,"22:02:56",1
"24/01/14","22:20",0.0,2.8,90.8,1013.0,320.4,1.3,1.8,324.8,0.00,1.5,6.6,"22:14:56",1
"24/01/14","22:30",0.0,2.7,91.2,1012.8,314.7,1.3,1.9,332.3,0.00,1.5,6.6,"22:24:08",1
"24/01/14","22:40",0.0,2.5,91.5,1012.6,306.5,1.1,1.6,318.6,0.00,1.3,6.5,"22:37:28",1
"24/01/14","22:50",0.0,2.4,92.0,1012.6,275.9,0.8,2.5,316.9,0.00,1.3,6.6,"22:49:46",1
"24/01/14","23:00",0.0,2.7,92.2,1012.3,320.1,1.5,2.9,249.8,0.00,1.6,6.3,"22:59:20",1
"24/01/14","23:10",0.0,2.5,92.5,1012.1,311.5,0.8,2.5,311.0,0.00,1.4,6.5,"23:09:38",1
"24/01/14","23:20",0.0,2.0,92.8,1011.6,290.0,1.3,2.2,322.9,0.00,1.0,6.3,"23:12:24",1
"24/01/14","23:30",0.0,1.9,93.2,1011.6,326.0,1.6,2.6,335.3,0.00,1.0,6.6,"23:26:32",1
"24/01/14","23:40",0.0,1.7,93.4,1011.4,278.3,0.8,2.1,322.9,0.00,0.8,6.4,"23:30:24",1
"24/01/14","23:50",0.0,1.8,93.8,1011.2,329.6,2.0,3.1,322.4,0.00,0.9,6.3,"23:42:24",1
"24/01/14","24:00",0.0,1.9,94.2,1010.9,286.3,1.2,1.7,309.1,0.00,1.1,6.5,"23:54:56",1
